Orbital Elements at Epoch 2459200.5 (2020-Dec-17.0) TDB
Reference: JPL 20 (heliocentric ecliptic J2000)
Element | Value | Uncertainty (1-sigma) | Units |
e | .09767756495119266 | 6.1504e-08 | |
a | 2.712361792688641 | 1.4716e-08 | au |
q | 2.447424897512164 | 1.6695e-07 | au |
i | 4.25194647084899 | 5.2268e-06 | deg |
node | 33.4441790811898 | 7.1922e-05 | deg |
peri | .4390558756813625 | 7.8698e-05 | deg |
M | 160.49801310038 | 3.0102e-05 | deg |
tp | 2458473.077025115098 (2018-Dec-20.57702512) | 0.00013553 | TDB |
period | 1631.623132896869 4.47 | 1.3279e-05 3.636e-08 | d yr |
n | .2206391860605931 | 1.7956e-09 | deg/d |
Q | 2.97729868786512 | 1.6153e-08 | au |
|
| | Orbit Determination Parameters
Additional Information
|